Location: Alpha Ridge Park
(39.3209°N, 76.9128°W)
Time: 15:12:19
(UTC-04:00)

Transit 2A - Pass Details

Date: 23 May 2019
Orbit: 593 x 966 km, 66.7° (Epoch: 15 June)

Event Time Altitude Azimuth Distance (km) Brightness Sun altitude
Rises 09:51:21 0° 248° (WSW) 3,574 9.1 44.8°
Reaches altitude 10° 09:54:23 10° 262° (W) 2,668 8.5 45.4°
Maximum altitude 09:59:21 24° 314° (NW) 1,889 7.9 46.3°
Drops below altitude 10° 10:04:23 10° 6° (N) 2,706 8.9 47.3°
Sets 10:07:30 0° 21° (NNE) 3,637 9.6 47.9°
